[[{"header":{"parameterUnit":"m.s-1","parameterCategory":1,"la1":30.2991,"la2":30.254,"lo1":-89.0895,"lo2":-89.0444,"dy":0.0017,"dx":0.0017,"nx":28,"ny":28,"refTime":"2024-04-01T21:00:00:Z","depth":0,"parameterNumber":2,"parameterNumberName":"U-component_of_WINDS"},"data":[0,0,0,0,0,0,0,0,0,0,0,0,0,0,0,0,0,0,0,0,0,0,0,0,0,0,0,0,0,0,0,0,0,0,0,0,0,0,0,0,0,0,0,0,0,0,0,0,0,0,0,0,0,0,0,0,0,0,-3.2628,-3.263,0,-3.2765,-3.2767,-3.2768,-3.2774,-3.2772,-3.277,-3.2769,-3.2909,-3.2914,-3.2919,0,0,0,0,0,0,0,0,0,0,0,0,0,-3.2372,-3.2376,-3.2628,-3.263,-3.2632,-3.2765,-3.2767,-3.2769,-3.2774,-3.2772,-3.277,-3.2768,-3.2907,-3.2913,-3.292,0,0,0,0,0,0,0,0,0,0,0,0,0,-3.2493,-3.2378,-3.2628,-3.265,-3.2654,-3.2764,-3.2767,-3.2769,-3.2774,-3.2772,-3.277,-3.2767,-3.2905,-3.2913,-3.292,-3.3018,0,0,-3.2944,-3.2948,0,0,0,0,0,0,0,0,-3.2486,-3.2503,-3.2645,-3.2649,-3.2653,-3.275,-3.2728,-3.2852,-3.2775,-3.2729,-3.2769,-3.2766,-3.2858,-3.2869,-3.2901,-3.3024,-3.303,-3.2945,-3.295,-3.2953,-3.2956,0,0,0,0,0,0,0,-3.2478,-3.2497,-3.2682,-3.2647,-3.2652,-3.2654,-3.2668,-3.2751,-3.2805,-3.2732,-3.2733,-3.2749,-3.286,-3.2893,-3.2904,-3.3032,-3.2945,-3.2952,-3.2957,-3.296,-3.3242,-3.3245,0,0,0,0,0,0,-3.2465,-3.249,-3.2678,-3.2686,-3.2562,-3.266,-3.2677,-3.2721,-3.2804,-3.2815,-3.2751,-3.2749,-3.2881,-3.2895,-3.2909,-3.3026,-3.2953,-3.2961,-3.2965,-3.3239,-3.3243,-3.3246,0,0,0,0,0,0,-3.2459,-3.2482,-3.2672,-3.2588,-3.2613,-3.2667,-3.2717,-3.2725,-3.2758,-3.2819,-3.2828,-3.2775,-3.2879,-3.2898,-3.299,-3.3031,-3.2964,-3.2971,-3.3236,-3.324,-3.3244,-3.3264,0,0,0,0,0,0,-3.2452,-3.248,-3.2517,-3.2589,-3.2617,-3.2752,-3.272,-3.273,-3.2772,-3.277,-3.2844,-3.2854,-3.2879,-3.2979,-3.2998,-3.3041,-3.2977,-3.3232,-3.3238,-3.3243,-3.3259,-3.3268,-3.3275,0,0,0,0,0,-3.2443,-3.2517,-3.2519,-3.2542,-3.2665,-3.2754,-3.277,-3.2798,-3.2775,-3.2813,-3.2852,-3.2851,-3.3025,-3.2988,-3.301,-3.3056,-3.323,-3.3236,-3.3242,-3.3256,-3.3266,-3.3275,0,0,0,0,0,0,-3.2449,-3.2527,-3.253,-3.263,-3.2685,-3.2755,-3.2803,-3.2808,-3.287,-3.2866,-3.2898,-3.2915,-3.3006,-3.3041,-3.2999,-3.3154,-3.3125,-3.3136,-3.3127,-3.3138,-3.3145,-3.3134,-3.2984,0,0,0,0,0,-3.2462,-3.2527,-3.2593,-3.2675,-3.2702,-3.2748,-3.2788,-3.2805,-3.2863,-3.2886,-3.2932,-3.2989,-3.3056,-3.3099,-3.3165,-3.3266,-3.3281,-3.3308,-3.3316,-3.3322,-3.333,-3.3385,-3.3397,-3.3266,-3.3266,-3.3266,0,0,-3.2489,-3.254,-3.2579,-3.2677,-3.2722,-3.2788,-3.2768,-3.284,-3.2889,-3.2897,-3.2987,-3.3023,-3.3088,-3.3185,-3.323,-3.3217,-3.3371,-3.333,-3.3335,-3.334,-3.3393,-3.3405,-3.3416,-3.327,-3.327,-3.3269,0,0,-3.2572,-3.2618,-3.269,-3.2736,-3.2804,-3.2834,-3.2852,-3.2921,-3.2945,-3.3036,-3.3043,-3.3103,-3.3218,-3.3264,-3.3303,-3.3404,-3.3405,-3.3425,-3.3465,-3.3518,-3.3528,-3.3537,-3.3571,-3.3583,-3.3434,-3.3434,-3.3434,0,-3.2596,-3.2697,-3.2727,-3.2799,-3.2841,-3.2852,-3.2925,-3.2968,-3.3054,-3.3083,-3.3068,-3.3212,-3.3257,-3.3364,-3.3389,-3.3421,-3.3441,-3.3415,-3.3524,-3.3534,-3.3543,-3.3575,-3.3588,-3.3436,-3.3435,-3.3435,-3.3435,0,-3.2723,-3.2793,-3.2844,-3.2926,-3.2975,-3.3047,-3.3087,-3.3133,-3.3146,-3.3178,-3.3269,-3.3325,-3.34,-3.3428,-3.3442,-3.3537,-3.3526,-3.3518,-3.3488,-3.3556,-3.3587,-3.36,-3.3438,-3.3437,-3.3437,-3.3436,0,0,-3.2811,-3.291,-3.2927,-3.2964,-3.3041,-3.3095,-3.3169,-3.3243,-3.328,-3.334,-3.3401,-3.3499,-3.3491,-3.3535,-3.3554,-3.3601,-3.3675,-3.3586,-3.3588,-3.3599,-3.3782,-3.3785,-3.38,-3.3678,-3.3681,-3.3683,-3.3775,0,-3.29,-3.3029,-3.3058,-3.3168,-3.3233,-3.3245,-3.3309,-3.3362,-3.3395,-3.3454,-3.349,-3.3558,-3.3544,-3.357,-3.3617,-3.3656,-3.3712,-3.3651,-3.3733,-3.3736,-3.3713,-3.3816,-3.3821,-3.3905,-3.3788,-3.379,-3.3792,0,-3.302,-3.3082,-3.3199,-3.3266,-3.3294,-3.3351,-3.3421,-3.3478,-3.3539,-3.356,-3.3609,-3.3624,-3.37,-3.3669,-3.3773,-3.3731,-3.3767,-3.3792,-3.3796,-3.3802,-3.3765,-3.3822,-3.3933,-3.3944,-3.3812,-3.381,-3.3809,0,-3.3069,-3.3182,-3.3266,-3.3298,-3.3379,-3.3418,-3.3454,-3.3513,-3.3556,-3.3618,-3.3646,-3.3716,-3.3754,-3.3808,-3.3841,-3.3816,-3.3943,-3.3915,-3.396,-3.3959,-3.3983,-3.3981,-3.4098,-3.4012,-3.4012,-3.4012,-3.4011,0,-3.3163,-3.3233,-3.3288,-3.334,-3.3419,-3.3453,-3.353,-3.3566,-3.3619,-3.3677,-3.3694,-3.3748,-3.3791,-3.3851,-3.3878,-3.3959,-3.3977,-3.3995,-3.4,-3.3991,-3.3989,-3.4013,-3.4007,-3.4015,-3.4014,-3.4014,-3.4013,0,-3.3229,-3.3269,-3.3361,-3.3431,-3.3451,-3.3506,-3.3566,-3.3616,-3.3649,-3.3723,-3.3742,-3.3795,-3.3867,-3.3906,-3.3997,-3.4015,-3.4105,-3.4109,-3.4084,-3.4085,-3.4127,-3.4122,-3.4262,-3.4281,-3.4185,-3.4186,-3.4187,0,-3.3285,-3.3339,-3.3415,-3.3455,-3.3492,-3.3557,-3.36,-3.3636,-3.3681,-3.3755,-3.3797,-3.387,-3.3929,-3.4044,-3.409,-3.4159,-3.4164,-3.4208,-3.4174,-3.4163,-3.4161,-3.4156,-3.4161,-3.4213,-3.4214,-3.4214,-3.4215,0,-3.3379,-3.3396,-3.3458,-3.3527,-3.3579,-3.3635,-3.3691,-3.3723,-3.3768,-3.3818,-3.3891,-3.3938,-3.403,-3.4102,-3.4175,-3.4213,-3.4221,-3.4226,-3.424,-3.4229,-3.4211,-3.4219,-3.4096,-3.4222,-3.4221,-3.4221,-3.422,-3.422,-3.344,-3.3488,-3.3548,-3.3617,-3.3663,-3.3715,-3.3765,-3.3805,-3.3867,-3.3944,-3.3963,-3.404,-3.41,-3.4199,-3.4239,-3.43,-3.4291,-3.4311,-3.4316,-3.432,-3.432,-3.4204,-3.4314,-3.4313,-3.4313,-3.4313,-3.4313,0,-3.3532,-3.3572,-3.3635,-3.3712,-3.3766,-3.377,-3.3832,-3.3877,-3.3944,-3.4,-3.4059,-3.4143,-3.4213,-3.4266,-3.4337,-3.4376,-3.4381,-3.4393,-3.4389,-3.4397,-3.4325,-3.4304,-3.4387,-3.4387,-3.4387,-3.4387,-3.4387,-3.4387,-3.3586,-3.3667,-3.3692,-3.3796,-3.3836,-3.3911,-3.3946,-3.3993,-3.4038,-3.4131,-3.4189,-3.4223,-3.4277,-3.4353,-3.4417,-3.4431,-3.4455,-3.4466,-3.448,-3.441,-3.4402,-3.4395,-3.4375,-3.4472,-3.4472,-3.4547,-3.4547,-3.4548]},{"header":{"parameterUnit":"m.s-1","parameterCategory":1,"la1":30.2991,"la2":30.254,"lo1":-89.0895,"lo2":-89.0444,"dy":0.0017,"dx":0.0017,"nx":28,"ny":28,"refTime":"2024-04-01T21:00:00:Z","depth":0,"parameterNumber":3,"parameterNumberName":"V-component_of_WINDS"},"data":[0,0,0,0,0,0,0,0,0,0,0,0,0,0,0,0,0,0,0,0,0,0,0,0,0,0,0,0,0,0,0,0,0,0,0,0,0,0,0,0,0,0,0,0,0,0,0,0,0,0,0,0,0,0,0,0,0,0,3.8097,3.8097,0,3.8102,3.8102,3.8102,3.8152,3.8153,3.8154,3.8155,3.8157,3.8155,3.8154,0,0,0,0,0,0,0,0,0,0,0,0,0,3.8129,3.8128,3.8097,3.8097,3.8097,3.8102,3.8102,3.8102,3.8152,3.8153,3.8155,3.8156,3.8157,3.8156,3.8154,0,0,0,0,0,0,0,0,0,0,0,0,0,3.8123,3.8128,3.8097,3.8123,3.8125,3.8102,3.8102,3.8102,3.8151,3.8153,3.8155,3.8157,3.8157,3.8156,3.8154,3.8106,0,0,3.8149,3.8148,0,0,0,0,0,0,0,0,3.8123,3.8121,3.8119,3.8121,3.8123,3.8128,3.8114,3.8103,3.8151,3.8141,3.8156,3.8158,3.8145,3.8145,3.8141,3.8106,3.8106,3.8149,3.8148,3.8147,3.8146,0,0,0,0,0,0,0,3.8123,3.8121,3.8099,3.8119,3.8121,3.8133,3.8135,3.8112,3.8132,3.8142,3.8146,3.8146,3.8147,3.8143,3.8142,3.8106,3.8149,3.8147,3.8146,3.8145,3.8036,3.8034,0,0,0,0,0,0,3.812,3.8121,3.8099,3.8099,3.8128,3.8131,3.8133,3.8125,3.8133,3.8136,3.8144,3.8148,3.8145,3.8144,3.8142,3.809,3.8147,3.8145,3.8144,3.8038,3.8036,3.8034,0,0,0,0,0,0,3.8121,3.8118,3.8099,3.8111,3.811,3.8129,3.812,3.8124,3.812,3.8135,3.8138,3.8137,3.8146,3.8144,3.8116,3.809,3.8145,3.8143,3.804,3.8037,3.8035,3.7982,0,0,0,0,0,0,3.8122,3.8118,3.81,3.8111,3.8109,3.8072,3.8118,3.8123,3.8118,3.8123,3.8128,3.8131,3.8148,3.8118,3.8114,3.8089,3.8142,3.8043,3.8039,3.8035,3.7986,3.7978,3.7971,0,0,0,0,0,3.8123,3.8083,3.8099,3.8096,3.8087,3.8071,3.807,3.8091,3.8115,3.8098,3.8108,3.8131,3.8094,3.8115,3.8111,3.8084,3.8044,3.804,3.8036,3.799,3.798,3.7971,0,0,0,0,0,0,3.8066,3.8085,3.8102,3.8065,3.8066,3.8079,3.8057,3.8079,3.8072,3.8077,3.8102,3.8103,3.8071,3.8075,3.8098,3.8041,3.8073,3.8068,3.804,3.803,3.8022,3.8023,3.814,0,0,0,0,0,3.805,3.8036,3.8053,3.8018,3.8018,3.8038,3.8031,3.8048,3.805,3.805,3.8058,3.8058,3.8047,3.8038,3.8028,3.7987,3.799,3.7967,3.7959,3.7953,3.7948,3.793,3.7921,3.802,3.802,3.802,0,0,3.8015,3.8023,3.8013,3.8007,3.801,3.7996,3.8038,3.8019,3.8009,3.8047,3.8022,3.8027,3.8029,3.7995,3.798,3.7997,3.7922,3.7947,3.7942,3.7941,3.7925,3.7916,3.7907,3.8017,3.8017,3.8018,0,0,3.7945,3.7949,3.7923,3.7926,3.7931,3.7945,3.7938,3.7949,3.7955,3.7931,3.796,3.7948,3.7927,3.7928,3.7926,3.7861,3.7883,3.7856,3.7816,3.7798,3.779,3.7783,3.7763,3.7755,3.7851,3.7851,3.7851,0,3.7901,3.7881,3.7906,3.7887,3.7885,3.7921,3.7896,3.7897,3.7897,3.7895,3.7914,3.7892,3.7895,3.7864,3.7848,3.7844,3.7839,3.7856,3.7789,3.7783,3.7777,3.7758,3.7749,3.7848,3.7849,3.7849,3.7849,0,3.7828,3.7814,3.7792,3.7795,3.779,3.7767,3.779,3.7782,3.7799,3.7811,3.7788,3.7794,3.7787,3.7781,3.7796,3.7752,3.7763,3.7785,3.7819,3.7764,3.7747,3.7739,3.7844,3.7845,3.7846,3.7847,0,0,3.772,3.7741,3.7732,3.7736,3.7746,3.7735,3.7715,3.7712,3.7706,3.7705,3.769,3.7674,3.7696,3.7693,3.771,3.7694,3.7646,3.7719,3.7719,3.7707,3.7601,3.7585,3.7576,3.766,3.7659,3.7658,3.7601,0,3.7655,3.7624,3.7648,3.7612,3.7601,3.7637,3.762,3.7625,3.7636,3.7628,3.764,3.7629,3.7657,3.7657,3.7643,3.7654,3.7625,3.7658,3.7647,3.7647,3.7648,3.7566,3.7549,3.7496,3.7594,3.7593,3.7592,0,3.7575,3.7575,3.7539,3.7555,3.7551,3.7535,3.7536,3.7527,3.7534,3.7543,3.7543,3.7565,3.7547,3.758,3.7557,3.7579,3.7576,3.7582,3.758,3.7581,3.7617,3.7567,3.7479,3.7472,3.7581,3.7582,3.7583,0,3.7504,3.7494,3.7473,3.7474,3.7491,3.748,3.7487,3.7495,3.7493,3.7492,3.7491,3.7488,3.7486,3.7484,3.7505,3.7526,3.748,3.7513,3.7488,3.7488,3.7477,3.7478,3.739,3.7472,3.7472,3.7473,3.7473,0,3.743,3.7407,3.7442,3.7428,3.7405,3.7433,3.7408,3.7418,3.7426,3.7416,3.7446,3.7435,3.7463,3.7455,3.7471,3.7452,3.745,3.7458,3.7462,3.7456,3.7455,3.7455,3.746,3.747,3.7471,3.7471,3.7472,0,3.7346,3.7368,3.7348,3.7367,3.7372,3.7354,3.737,3.7359,3.7374,3.7361,3.7359,3.7381,3.7375,3.7395,3.7391,3.7402,3.7374,3.7384,3.7372,3.7376,3.7351,3.7354,3.7261,3.7251,3.7338,3.7337,3.7336,0,3.7298,3.7282,3.7301,3.7298,3.7304,3.7296,3.7295,3.7322,3.732,3.7328,3.7316,3.7313,3.7311,3.7299,3.7314,3.7312,3.7323,3.7291,3.7323,3.7318,3.7326,3.7327,3.7327,3.7284,3.7283,3.7282,3.7282,0,3.7212,3.7225,3.7222,3.7225,3.7223,3.7225,3.7229,3.7225,3.7254,3.725,3.7245,3.7244,3.7242,3.7238,3.724,3.7246,3.7269,3.7272,3.7266,3.726,3.7256,3.726,3.7357,3.7274,3.7274,3.7275,3.7275,3.7276,3.7147,3.7136,3.7148,3.7146,3.7153,3.7157,3.7149,3.7164,3.716,3.7162,3.7178,3.7171,3.718,3.7185,3.719,3.7185,3.7199,3.7191,3.7189,3.7187,3.7184,3.7255,3.7184,3.7185,3.7185,3.7185,3.7185,0,3.7064,3.7075,3.7072,3.7079,3.7078,3.7101,3.7108,3.7105,3.7099,3.7107,3.7106,3.7102,3.7099,3.7116,3.7116,3.7109,3.7119,3.7108,3.7109,3.7111,3.7169,3.7175,3.7099,3.7099,3.7099,3.7099,3.7099,3.7099,3.7021,3.7005,3.702,3.7008,3.7019,3.7013,3.7016,3.702,3.7027,3.7022,3.7021,3.7033,3.7045,3.7046,3.7046,3.7051,3.705,3.7035,3.7044,3.7098,3.7106,3.7114,3.712,3.7035,3.7034,3.6987,3.6987,3.6986]}]]